Weather in Kamiane

Ukraine / Zaporizhia Region     47°52′28″N   35°23′57″E
temp.,
°C
wind,
m/s
gust,
m/s
humid.,
%
clouds,
%
prec.,
mm/h
press.,
hPa
HPBL,
m
2 march, tue
tue223:000nnw23790 0.0 102938
02:000nw238129 0.0 103059
05:00−1nw238559 0.0 102963
08:00+1w467745 0.0 1028367
11:00+4wsw686315 0.0 1026837
14:00+5wsw8116557 0.0 1023885
17:00+4wsw81473100 0.0 1021699
20:00+3w6128198 0.0 1020666
3 march, wed
wed323:00+2wnw51080100 0.0 1019626
02:00+2nw61197100 0.3 1019651
05:00+2nnw7118189 0.1 1020909
08:00+1nnw7107982 0.1 1023698
11:00+4nnw696039 0.0 10241144
14:00+6nw794920 0.0 10241499
17:00+4nw48530 0.0 1024396
20:00+2wnw36680 0.0 1026121
4 march, thu
thu423:00+1w23760 0.0 102643
02:000sw35790 0.0 1025107
05:00−1sw47860 0.0 1023173
08:00+2sw59710 0.0 1022363
11:00+6sw811570 0.0 1020951
14:00+8wsw812570 0.0 10171114
17:00+7sw7147210 0.0 1015582
20:00+5sw8158036 0.0 1015635
5 march, fri
fri523:00+3sw7148736 0.0 1014563
02:00+2sw6149144 0.0 1013484
05:00+2sw5119463 0.0 1013365
08:00+3sw699280 0.0 1013380
11:00+7sw5882100 0.0 1013544
14:00+10sw61071100 0.0 1011871
17:00+9ssw4107494 0.0 1010303
20:00+6ssw498571 0.0 1011185
6 march, sat
sat623:00+5sw499495 0.0 1011277
02:00+4wnw129797 0.0 101267
05:00+4nnw5994100 0.2 1013398
08:00+1nne6892100 0.3 1015540
11:00+3n6761100 0.1 10161057
14:00+4n7845100 0.1 10171408
17:00+2nnw6851100 0.0 10181470
20:000nnw61154100 0.0 1021859